{"data":{"norad_id":64729,"intl_designator":"2025-144F","name":"STARLINK-34588","alt_names":[],"object_type":"PAYLOAD","status":"ACTIVE","operator":null,"country":"US","launch_date":"2025-07-02","launch_site_code":"AFETR","launch_vehicle":null,"mission":null,"orbit_class":"UNKNOWN","rcs_meters":null,"size_class":null,"mass_kg":null,"dimensions":null,"purposes":["comms"],"wikipedia_slug":null,"has_3d_model":false,"image_url":null,"decayed_at":null,"tle_current":{"epoch":"2026-09-20T12:49:36.979392Z","epoch_age_seconds":124966,"freshness":"FRESH","line1":"1 64729U 25144F   26263.53445578  .00007732  00000+0  23974-3 0  9990","line2":"2 64729  53.1618 355.2956 0001347 108.4285 251.6864 15.34399119 69554","mean_motion":15.34399119,"eccentricity":0.0001347,"inclination_deg":53.1618,"raan_deg":355.2956,"arg_perigee_deg":108.4285,"mean_anomaly_deg":251.6864,"bstar":0.00023974,"rev_number":6955,"period_min":93.847811965539,"perigee_km":461.78439719295,"apogee_km":463.62732025909,"semimajor_km":6840.842858726,"source":"CELESTRAK","updated_at":"2026-09-21T09:00:35.409782Z"}}}